N92TH KTVL-KCRQ

Flight info

Callsign N92TH
Flight time 1h 13m
Altitude 45000
Route FRA EHF BLOXX LEGOZ4
Aircraft C750/M-SBDE3FGHRWXY/S

Departure

Time 2026-04-21 14:07
Airport Lake Tahoe Airport (KTVL)

Arrival

Time 2026-04-21 15:20
Airport McClellan-Palomar Airport (KCRQ)
Time Latitude Longitude Altitude Speed Heading
2026-04-21 14:05 38.88779 -119.99818 6262 ft 18 kts 193°
2026-04-21 14:05 38.88635 -119.99861 6261 ft 15 kts 192°
2026-04-21 14:05 38.88566 -119.99880 6260 ft 11 kts 193°
2026-04-21 14:06 38.88496 -119.99900 6261 ft 11 kts 193°
2026-04-21 14:06 38.88386 -119.99933 6263 ft 22 kts 193°
2026-04-21 14:06 38.88271 -119.99928 6262 ft 11 kts 108°
2026-04-21 14:06 38.88284 -119.99868 6263 ft 4 kts 40°
2026-04-21 14:07 38.88335 -119.99845 6265 ft 17 kts 13°
2026-04-21 14:07 38.88728 -119.99730 6262 ft 105 kts 13°
2026-04-21 14:07 38.89647 -119.99456 6366 ft 149 kts 16°
2026-04-21 14:07 38.90693 -119.99195 6887 ft 159 kts
2026-04-21 14:08 38.91828 -119.99422 7404 ft 170 kts 347°
2026-04-21 14:08 38.93071 -119.99612 7710 ft 194 kts 355°
2026-04-21 14:08 38.94490 -119.99644 8071 ft 212 kts 358°
2026-04-21 14:08 38.96047 -119.99729 8362 ft 238 kts 354°
2026-04-21 14:09 38.97738 -120.00090 8375 ft 262 kts 338°
2026-04-21 14:09 38.99334 -120.01310 8644 ft 277 kts 317°
2026-04-21 14:09 39.00751 -120.03142 9050 ft 294 kts 308°
2026-04-21 14:09 39.02152 -120.05073 9907 ft 297 kts 308°
2026-04-21 14:10 39.03601 -120.07066 10282 ft 315 kts 308°
2026-04-21 14:10 39.05124 -120.09158 10945 ft 314 kts 308°
2026-04-21 14:10 39.06597 -120.11164 12007 ft 307 kts 306°
2026-04-21 14:10 39.08065 -120.13199 12607 ft 314 kts 306°
2026-04-21 14:11 39.09542 -120.15242 12967 ft 313 kts 306°
2026-04-21 14:11 39.11035 -120.17297 12987 ft 315 kts 307°
2026-04-21 14:11 39.12542 -120.19368 13722 ft 315 kts 306°
2026-04-21 14:11 39.14040 -120.21438 14315 ft 317 kts 306°
2026-04-21 14:12 39.15557 -120.23547 14838 ft 324 kts 305°
2026-04-21 14:12 39.17100 -120.25688 15383 ft 329 kts 305°
2026-04-21 14:12 39.18568 -120.27796 15939 ft 328 kts 299°
2026-04-21 14:12 39.19549 -120.30373 16508 ft 316 kts 278°
2026-04-21 14:13 39.19841 -120.33112 17235 ft 303 kts 259°
2026-04-21 14:13 39.19477 -120.35732 18008 ft 292 kts 243°
2026-04-21 14:13 39.18563 -120.38007 18697 ft 282 kts 227°
2026-04-21 14:13 39.17161 -120.39677 19334 ft 272 kts 208°
2026-04-21 14:14 39.15491 -120.40802 20017 ft 272 kts 199°
2026-04-21 14:14 39.13657 -120.41474 20560 ft 276 kts 189°
2026-04-21 14:14 39.11745 -120.41646 21256 ft 277 kts 180°
2026-04-21 14:14 39.09827 -120.41292 21880 ft 282 kts 169°
2026-04-21 14:15 39.07935 -120.40509 22298 ft 294 kts 166°
2026-04-21 14:15 39.05929 -120.39654 22294 ft 313 kts 168°
2026-04-21 14:15 39.03798 -120.38773 22291 ft 330 kts 168°
2026-04-21 14:15 39.01590 -120.37848 22312 ft 346 kts 167°
2026-04-21 14:16 38.99282 -120.36854 22683 ft 351 kts 167°
2026-04-21 14:16 38.96968 -120.35869 23263 ft 350 kts 168°
2026-04-21 14:16 38.94638 -120.34902 23708 ft 352 kts 168°
2026-04-21 14:16 38.92295 -120.33927 24119 ft 355 kts 168°
2026-04-21 14:17 38.89939 -120.32932 24516 ft 357 kts 167°
2026-04-21 14:17 38.87567 -120.31935 24935 ft 360 kts 167°
2026-04-21 14:17 38.85179 -120.30935 25312 ft 362 kts 168°
2026-04-21 14:17 38.82779 -120.29930 25677 ft 364 kts 167°
2026-04-21 14:18 38.80359 -120.28921 26055 ft 366 kts 168°
2026-04-21 14:18 38.77924 -120.27906 26464 ft 369 kts 168°
2026-04-21 14:18 38.75470 -120.26869 26758 ft 372 kts 167°
2026-04-21 14:18 38.73011 -120.25822 27110 ft 373 kts 167°
2026-04-21 14:19 38.70537 -120.24798 27507 ft 374 kts 168°
2026-04-21 14:19 38.68042 -120.23795 27869 ft 377 kts 168°
2026-04-21 14:19 38.65543 -120.22751 28255 ft 379 kts 167°
2026-04-21 14:19 38.63034 -120.21687 28640 ft 381 kts 167°
2026-04-21 14:20 38.60504 -120.20630 29030 ft 383 kts 167°
2026-04-21 14:20 38.57960 -120.19579 29391 ft 385 kts 167°
2026-04-21 14:20 38.55400 -120.18522 29734 ft 388 kts 167°
2026-04-21 14:20 38.52828 -120.17448 30059 ft 390 kts 167°
2026-04-21 14:21 38.50271 -120.16380 30312 ft 392 kts 167°
2026-04-21 14:21 38.47664 -120.15301 30584 ft 394 kts 168°
2026-04-21 14:21 38.45049 -120.14225 30816 ft 396 kts 168°
2026-04-21 14:21 38.42433 -120.13141 31173 ft 394 kts 167°
2026-04-21 14:22 38.39823 -120.12055 31483 ft 394 kts 168°
2026-04-21 14:22 38.37206 -120.10973 31624 ft 397 kts 167°
2026-04-21 14:22 38.34555 -120.09882 31834 ft 401 kts 167°
2026-04-21 14:22 38.31903 -120.08788 32175 ft 401 kts 166°
2026-04-21 14:23 38.29249 -120.07692 32550 ft 400 kts 167°
2026-04-21 14:23 38.26606 -120.06604 32896 ft 400 kts 167°
2026-04-21 14:23 38.23986 -120.05525 33243 ft 400 kts 167°
2026-04-21 14:23 38.21340 -120.04433 33597 ft 399 kts 167°
2026-04-21 14:24 38.18696 -120.03356 33965 ft 399 kts 167°
2026-04-21 14:24 38.16050 -120.02268 34260 ft 400 kts 167°
2026-04-21 14:24 38.13400 -120.01170 34615 ft 401 kts 167°
2026-04-21 14:24 38.10737 -120.00075 34959 ft 402 kts 167°
2026-04-21 14:25 38.08074 -119.98991 35314 ft 402 kts 168°
2026-04-21 14:25 38.05401 -119.97902 35694 ft 403 kts 167°
2026-04-21 14:25 38.02734 -119.96808 36067 ft 403 kts 167°
2026-04-21 14:25 38.00062 -119.95716 36423 ft 404 kts 167°
2026-04-21 14:26 37.97386 -119.94617 36825 ft 405 kts 167°
2026-04-21 14:26 37.94699 -119.93518 37206 ft 406 kts 168°
2026-04-21 14:26 37.92019 -119.92427 37697 ft 404 kts 168°
2026-04-21 14:26 37.89369 -119.91351 38119 ft 405 kts 168°
2026-04-21 14:27 37.86693 -119.90258 38537 ft 406 kts 168°
2026-04-21 14:27 37.83993 -119.89161 38864 ft 407 kts 168°
2026-04-21 14:27 37.81291 -119.88064 39148 ft 409 kts 168°
2026-04-21 14:27 37.78575 -119.86960 39410 ft 411 kts 168°
2026-04-21 14:28 37.75855 -119.85853 39721 ft 411 kts 168°
2026-04-21 14:28 37.73127 -119.84748 39977 ft 413 kts 168°
2026-04-21 14:28 37.70379 -119.83635 40258 ft 415 kts 168°
2026-04-21 14:28 37.67617 -119.82514 40526 ft 417 kts 167°
2026-04-21 14:29 37.64849 -119.81391 40764 ft 418 kts 167°
2026-04-21 14:29 37.62065 -119.80266 40928 ft 423 kts 167°
2026-04-21 14:29 37.59230 -119.79126 40934 ft 432 kts 167°
2026-04-21 14:30 37.53406 -119.76773 40949 ft 447 kts 167°
2026-04-21 14:30 37.47431 -119.74364 40946 ft 460 kts 167°
2026-04-21 14:31 37.41242 -119.71876 40952 ft 472 kts 167°
2026-04-21 14:31 37.35006 -119.69359 40949 ft 462 kts 168°
2026-04-21 14:32 37.28808 -119.66892 40957 ft 472 kts 168°
2026-04-21 14:32 37.22511 -119.64354 40960 ft 477 kts 167°
2026-04-21 14:33 37.16172 -119.61831 40947 ft 479 kts 168°
2026-04-21 14:33 37.09810 -119.59336 40942 ft 476 kts 171°
2026-04-21 14:34 37.03421 -119.57352 40968 ft 476 kts 171°
2026-04-21 14:34 36.96994 -119.55318 40970 ft 477 kts 172°
2026-04-21 14:35 36.90555 -119.53315 40973 ft 476 kts 171°
2026-04-21 14:35 36.84110 -119.51297 40981 ft 477 kts 171°
2026-04-21 14:36 36.77662 -119.49290 40979 ft 477 kts 171°
2026-04-21 14:36 36.71256 -119.47295 40977 ft 477 kts 171°
2026-04-21 14:37 36.64809 -119.45293 40974 ft 477 kts 171°
2026-04-21 14:37 36.58363 -119.43294 40967 ft 477 kts 172°
2026-04-21 14:38 36.51912 -119.41297 40984 ft 477 kts 172°
2026-04-21 14:38 36.45461 -119.39303 40993 ft 478 kts 172°
2026-04-21 14:39 36.40088 -119.37646 40995 ft 477 kts 172°
2026-04-21 14:39 36.33629 -119.35656 40995 ft 479 kts 172°
2026-04-21 14:40 36.27155 -119.33664 40995 ft 479 kts 172°
2026-04-21 14:40 36.20687 -119.31679 40983 ft 479 kts 172°
2026-04-21 14:41 36.14194 -119.29689 40987 ft 480 kts 172°
2026-04-21 14:41 36.07749 -119.27716 40975 ft 480 kts 172°
2026-04-21 14:42 36.01257 -119.25734 40954 ft 480 kts 173°
2026-04-21 14:42 35.94754 -119.23753 40974 ft 483 kts 172°
2026-04-21 14:43 35.88230 -119.21763 40973 ft 482 kts 172°
2026-04-21 14:43 35.81711 -119.19784 40989 ft 482 kts 172°
2026-04-21 14:44 35.75180 -119.17802 40991 ft 483 kts 173°
2026-04-21 14:44 35.68690 -119.15836 40991 ft 483 kts 173°
2026-04-21 14:45 35.62162 -119.13863 40981 ft 483 kts 173°
2026-04-21 14:45 35.55615 -119.11887 40966 ft 485 kts 173°
2026-04-21 14:46 35.49052 -119.09910 40956 ft 484 kts 173°
2026-04-21 14:46 35.42459 -119.08423 40945 ft 481 kts 176°
2026-04-21 14:47 35.35898 -119.06969 40933 ft 483 kts 176°
2026-04-21 14:47 35.29275 -119.05525 40948 ft 483 kts 177°
2026-04-21 14:48 35.22658 -119.04076 40947 ft 483 kts 177°
2026-04-21 14:48 35.16047 -119.02635 40939 ft 483 kts 177°
2026-04-21 14:49 35.09419 -119.01190 40939 ft 483 kts 177°
2026-04-21 14:49 35.02794 -118.99750 40956 ft 483 kts 177°
2026-04-21 14:50 34.96185 -118.98312 40779 ft 473 kts 178°
2026-04-21 14:50 34.93000 -118.97610 40170 ft 457 kts 178°
2026-04-21 14:50 34.89905 -118.96943 39576 ft 448 kts 179°
2026-04-21 14:50 34.86876 -118.96294 38976 ft 435 kts 179°
2026-04-21 14:51 34.83967 -118.95663 38404 ft 426 kts 179°
2026-04-21 14:51 34.81067 -118.95042 37839 ft 421 kts 179°
2026-04-21 14:51 34.78164 -118.94418 37294 ft 426 kts 179°
2026-04-21 14:51 34.75237 -118.93788 36719 ft 428 kts 178°
2026-04-21 14:52 34.72306 -118.93150 36189 ft 428 kts 178°
2026-04-21 14:52 34.69360 -118.92513 35615 ft 429 kts 177°
2026-04-21 14:52 34.66415 -118.91881 35048 ft 429 kts 177°
2026-04-21 14:52 34.63472 -118.91249 34500 ft 430 kts 176°
2026-04-21 14:53 34.60526 -118.90614 33909 ft 430 kts 176°
2026-04-21 14:53 34.57578 -118.89978 33323 ft 430 kts 175°
2026-04-21 14:53 34.54443 -118.89359 32817 ft 432 kts 177°
2026-04-21 14:53 34.51640 -118.88781 32660 ft 437 kts 175°
2026-04-21 14:54 34.48662 -118.88004 32527 ft 443 kts 173°
2026-04-21 14:54 34.45684 -118.87008 32175 ft 443 kts 170°
2026-04-21 14:54 34.42724 -118.85965 31691 ft 441 kts 170°
2026-04-21 14:54 34.39790 -118.85044 31235 ft 440 kts 172°
2026-04-21 14:55 34.36812 -118.84169 30789 ft 441 kts 172°
2026-04-21 14:55 34.33849 -118.83234 30244 ft 438 kts 170°
2026-04-21 14:55 34.30924 -118.82262 29566 ft 434 kts 170°
2026-04-21 14:55 34.28027 -118.81331 28862 ft 427 kts 171°
2026-04-21 14:56 34.25164 -118.80447 28175 ft 422 kts 171°
2026-04-21 14:56 34.22340 -118.79562 27501 ft 417 kts 171°
2026-04-21 14:56 34.19549 -118.78667 26841 ft 413 kts 171°
2026-04-21 14:56 34.16783 -118.77785 26127 ft 408 kts 171°
2026-04-21 14:57 34.14054 -118.76927 25423 ft 403 kts 171°
2026-04-21 14:57 34.11348 -118.76080 24742 ft 400 kts 171°
2026-04-21 14:57 34.08654 -118.75342 24076 ft 396 kts 173°
2026-04-21 14:57 34.05987 -118.74582 23383 ft 390 kts 172°
2026-04-21 14:58 34.03362 -118.73814 22637 ft 386 kts 172°
2026-04-21 14:58 34.00766 -118.73086 22162 ft 382 kts 173°
2026-04-21 14:58 33.98175 -118.72389 21658 ft 380 kts 173°
2026-04-21 14:58 33.95611 -118.71672 21158 ft 377 kts 173°
2026-04-21 14:59 33.93067 -118.70944 20661 ft 374 kts 173°
2026-04-21 14:59 33.90539 -118.70233 20161 ft 372 kts 173°
2026-04-21 14:59 33.88022 -118.69537 19676 ft 370 kts 173°
2026-04-21 14:59 33.85528 -118.68841 19187 ft 367 kts 173°
2026-04-21 15:00 33.83050 -118.68145 18703 ft 364 kts 173°
2026-04-21 15:00 33.80617 -118.67466 18207 ft 361 kts 173°
2026-04-21 15:00 33.78179 -118.66787 17718 ft 358 kts 173°
2026-04-21 15:00 33.75756 -118.66112 17234 ft 356 kts 172°
2026-04-21 15:01 33.73378 -118.65538 17080 ft 352 kts 176°
2026-04-21 15:01 33.70955 -118.65043 17088 ft 353 kts 175°
2026-04-21 15:01 33.68527 -118.64519 17003 ft 356 kts 175°
2026-04-21 15:01 33.66101 -118.63999 16735 ft 353 kts 175°
2026-04-21 15:02 33.63681 -118.63494 16431 ft 351 kts 175°
2026-04-21 15:02 33.61281 -118.62995 16130 ft 349 kts 175°
2026-04-21 15:02 33.58897 -118.62493 16096 ft 349 kts 175°
2026-04-21 15:02 33.56507 -118.61990 16008 ft 348 kts 175°
2026-04-21 15:03 33.54113 -118.61489 15884 ft 348 kts 175°
2026-04-21 15:03 33.51729 -118.60990 15611 ft 347 kts 175°
2026-04-21 15:03 33.49404 -118.60361 15293 ft 351 kts 167°
2026-04-21 15:03 33.47211 -118.59017 15003 ft 361 kts 152°
2026-04-21 15:04 33.45332 -118.56983 15001 ft 371 kts 137°
2026-04-21 15:04 33.43887 -118.54356 14841 ft 381 kts 126°
2026-04-21 15:04 33.42646 -118.51562 14518 ft 379 kts 124°
2026-04-21 15:04 33.41419 -118.48788 14135 ft 376 kts 125°
2026-04-21 15:05 33.40174 -118.46049 13744 ft 372 kts 125°
2026-04-21 15:05 33.37728 -118.40636 12987 ft 366 kts 124°
2026-04-21 15:05 33.36848 -118.37732 12570 ft 376 kts 107°
2026-04-21 15:06 33.36471 -118.34669 12251 ft 374 kts 103°
2026-04-21 15:06 33.36129 -118.31715 11900 ft 345 kts 104°
2026-04-21 15:06 33.35785 -118.28973 11563 ft 321 kts 104°
2026-04-21 15:06 33.35452 -118.26382 11245 ft 311 kts 104°
2026-04-21 15:07 33.35124 -118.23785 10935 ft 312 kts 104°
2026-04-21 15:07 33.34807 -118.21263 10631 ft 304 kts 104°
2026-04-21 15:07 33.34471 -118.18776 10323 ft 302 kts 104°
2026-04-21 15:07 33.34137 -118.16294 10032 ft 302 kts 104°
2026-04-21 15:08 33.33811 -118.13815 9713 ft 301 kts 104°
2026-04-21 15:08 33.33490 -118.11373 9407 ft 300 kts 104°
2026-04-21 15:08 33.33163 -118.08909 9109 ft 299 kts 103°
2026-04-21 15:08 33.32836 -118.06452 8810 ft 299 kts 103°
2026-04-21 15:09 33.32510 -118.03999 8515 ft 298 kts 103°
2026-04-21 15:09 33.32185 -118.01553 8220 ft 297 kts 102°
2026-04-21 15:09 33.31860 -117.99122 7931 ft 296 kts 102°
2026-04-21 15:09 33.31537 -117.96702 7638 ft 291 kts 102°
2026-04-21 15:10 33.31217 -117.94305 7354 ft 292 kts 102°
2026-04-21 15:10 33.30912 -117.92013 7061 ft 265 kts 102°
2026-04-21 15:10 33.30635 -117.89945 6801 ft 249 kts 102°
2026-04-21 15:10 33.30358 -117.87905 6563 ft 247 kts 101°
2026-04-21 15:11 33.30084 -117.85878 6319 ft 247 kts 101°
2026-04-21 15:11 33.29811 -117.83852 6078 ft 246 kts 101°
2026-04-21 15:11 33.29541 -117.81843 5840 ft 244 kts 101°
2026-04-21 15:11 33.29270 -117.79840 5596 ft 243 kts 101°
2026-04-21 15:12 33.29001 -117.77851 5358 ft 242 kts 101°
2026-04-21 15:12 33.28733 -117.75872 5119 ft 240 kts 101°
2026-04-21 15:12 33.28179 -117.74039 4935 ft 231 kts 125°
2026-04-21 15:12 33.27273 -117.72453 5002 ft 234 kts 127°
2026-04-21 15:13 33.26366 -117.70828 5002 ft 235 kts 126°
2026-04-21 15:13 33.25462 -117.69191 5002 ft 235 kts 126°
2026-04-21 15:13 33.24558 -117.67566 4998 ft 235 kts 126°
2026-04-21 15:13 33.23647 -117.65935 4998 ft 236 kts 126°
2026-04-21 15:14 33.22737 -117.64303 5002 ft 236 kts 126°
2026-04-21 15:14 33.21824 -117.62669 5002 ft 236 kts 126°
2026-04-21 15:14 33.20910 -117.61032 5005 ft 237 kts 126°
2026-04-21 15:14 33.19996 -117.59395 5002 ft 236 kts 126°
2026-04-21 15:15 33.19081 -117.57759 4999 ft 236 kts 126°
2026-04-21 15:15 33.18166 -117.56123 4983 ft 237 kts 126°
2026-04-21 15:15 33.17250 -117.54487 4770 ft 237 kts 126°
2026-04-21 15:15 33.16339 -117.52860 4482 ft 234 kts 126°
2026-04-21 15:16 33.15447 -117.51264 4191 ft 229 kts 125°
2026-04-21 15:16 33.14579 -117.49708 3902 ft 226 kts 125°
2026-04-21 15:16 33.13716 -117.48161 3611 ft 222 kts 124°
2026-04-21 15:16 33.12864 -117.46635 3331 ft 220 kts 124°
2026-04-21 15:17 33.12015 -117.45114 3052 ft 220 kts 124°
2026-04-21 15:17 33.11186 -117.43629 2770 ft 205 kts 124°
2026-04-21 15:17 33.10657 -117.42137 2456 ft 193 kts 98°
2026-04-21 15:17 33.10783 -117.40580 2300 ft 187 kts 79°
2026-04-21 15:18 33.11039 -117.39079 2086 ft 185 kts 79°
2026-04-21 15:18 33.11277 -117.37611 1837 ft 174 kts 79°
2026-04-21 15:18 33.11507 -117.36184 1600 ft 173 kts 79°
2026-04-21 15:18 33.11713 -117.34904 1370 ft 143 kts 79°
2026-04-21 15:19 33.11890 -117.33822 1185 ft 127 kts 79°
2026-04-21 15:19 33.12056 -117.32804 977 ft 125 kts 79°
2026-04-21 15:19 33.12211 -117.31813 822 ft 120 kts 79°
2026-04-21 15:19 33.12367 -117.30847 690 ft 119 kts 78°
2026-04-21 15:20 33.12524 -117.29881 555 ft 117 kts 79°
2026-04-21 15:20 33.12677 -117.28922 393 ft 118 kts 79°
2026-04-21 15:20 33.12826 -117.28010 321 ft 102 kts 80°
2026-04-21 15:20 33.12916 -117.27452 321 ft 27 kts 80°
2026-04-21 15:21 33.12935 -117.27277 321 ft 15 kts 92°
2026-04-21 15:21 33.12877 -117.27276 319 ft 12 kts 219°
2026-04-21 15:21 33.12850 -117.27340 320 ft 9 kts 257°
2026-04-21 15:21 33.12835 -117.27436 320 ft 12 kts 260°
2026-04-21 15:22 33.12818 -117.27540 320 ft 13 kts 259°
2026-04-21 15:22 33.12801 -117.27645 321 ft 13 kts 259°
2026-04-21 15:22 33.12783 -117.27742 321 ft 11 kts 247°
2026-04-21 15:22 33.12742 -117.27774 322 ft 5 kts 229°
2026-04-21 15:23 33.12735 -117.27793 321 ft 0 kts 257°